Погода в Колашине

Черногория     42°49′30″N   19°31′21″E
темп.,
°C
ветер,
м/с
пор.,
м/с
влажн.,
%
обл.,
%
осадки,
мм/ч
давл.,
гПа
погр.,
м
18 июня, пт
пт1823:00+11св119144 0.3 102114
02:00+10св11915 0.8 102116
05:00+9св11903 0.0 102015
08:00+15св12793 0.0 1019211
11:00+18св227094 1.8 1018948
14:00+21сз135045 2.9 10171638
17:00+20з225691 0.6 1016743
20:00+14всв118191 1.1 101711
19 июня, сб
сб1923:00+11св2287100 0.0 101923
02:00+11св229056 0.0 101928
05:00+11св229293 0.0 101832
08:00+17св237152 0.0 1017355
11:00+21ссв2252100 0.0 10161518
14:00+20ссв2266100 1.1 10151055
17:00+19ссв238044 2.2 1015570
20:00+15ссв22880 3.1 101619
20 июня, вс
вс2023:00+12св22927 0.0 101728
02:00+11св22934 0.0 101730
05:00+11св229349 0.0 101635
08:00+17св23774 0.0 1015273
11:00+22с24477 0.0 10141922
14:00+25с254031 0.0 10122567
17:00+24ссв144415 0.0 10121869
20:00+17юв11825 0.1 101311
21 июня, пн
пн2123:00+14в018712 0.0 101512
02:00+14вюв0188100 0.0 101412
05:00+13ююз118660 0.0 101412
08:00+19юз127091 0.0 1014221
11:00+24юз3351100 0.0 1013889
14:00+26юз4745100 0.0 10121485
17:00+24юз485673 0.1 10121352
20:00+18юз23895 0.2 101556
22 июня, вт
вт2223:00+15ююз118668 0.0 101615
02:00+15ююв01835 0.0 101612
05:00+14ююв11724 0.0 101612
08:00+21юз13574 0.0 1015241
11:00+25юз34455 0.0 10151044
14:00+26юз45431 0.0 10151572
17:00+26юз34494 0.0 10151350
20:00+19ююз118038 0.0 101711